Temperature
18 18 18 18 18 17 17 17 17 17 17 17 16 16 15 15 15 15 15 15 15 15 14 14 14 14 14 14 14 14 14 14 14 14 14 14 14 14 14 14 13 13 13
18 18 18 18 17 17 17 17 17 17 17 16 16 16 15 15 15 15 15 15 15 15 14 14 14 14 14 14 14 14 13 13 13 13 14 14 14 14 14 13 13 13 13
18 18 18 18 18 18 17 17 17 17 17 16 16 16 16 15 15 15 15 15 15 15 14 14 14 14 14 14 13 13 13 13 13 13 13 13 13 13 13 13 13 13 13
19 18 18 18 18 18 17 17 17 17 17 16 16 16 16 16 15 15 15 15 15 15 15 14 14 14 14 14 13 13 13 13 13 13 13 13 13 14 13 13 13 13 13
19 18 18 18 18 18 17 17 17 17 17 17 16 16 16 16 16 16 16 15 15 15 15 15 14 14 14 14 13 13 13 13 13 13 13 13 13 13 13 13 13 13 13
20 19 18 18 18 18 17 17 17 17 17 16 16 16 16 16 16 16 16 16 15 15 15 15 15 14 14 14 14 14 13 13 13 13 13 13 13 13 13 13 12 12 12
20 19 19 18 18 18 17 17 17 17 17 17 16 16 16 16 16 16 16 16 16 15 15 15 15 14 14 14 14 14 13 13 13 13 13 13 13 13 12 12 12 12 12
20 19 19 18 18 17 17 17 17 17 17 17 16 16 16 16 16 16 16 15 15 15 15 15 15 14 14 14 13 13 13 13 13 13 13 13 13 13 12 12 12 11 12
19 19 18 18 17 17 17 16 16 16 16 16 16 16 16 16 16 16 15 15 15 15 15 15 14 14 14 14 13 13 13 13 13 12 12 12 12 12 12 12 11 11 11
18 18 18 18 17 17 17 16 16 16 16 16 15 15 15 15 15 15 15 14 14 14 14 14 14 14 14 14 13 13 13 13 13 12 12 12 12 12 12 12 11 11 11
18 17 17 17 17 17 16 16 16 15 15 15 15 15 15 15 15 15 14 14 14 14 13 14 14 14 13 13 13 13 13 13 12 12 12 12 12 12 12 12 12 12 11
17 17 17 16 16 16 16 15 15 15 14 14 14 14 14 14 14 14 14 14 14 13 13 13 13 13 13 13 13 13 13 12 12 12 11 11 11 11 12 12 12 12 12
16 16 16 15 15 15 15 14 14 14 14 14 14 14 14 14 14 14 13 13 13 13 12 12 12 12 12 12 12 12 12 12 12 11 11 11 11 11 12 12 12 12 11
15 15 15 15 15 15 14 14 14 14 13 13 13 13 13 13 13 13 13 13 12 12 12 12 12 12 12 12 12 12 12 12 12 11 11 11 11 11 11 11 12 12 11
14 14 14 14 14 14 14 14 13 13 13 13 13 13 13 12 12 12 12 12 12 11 11 11 11 11 11 11 11 11 12 11 11 11 11 11 11 11 11 11 11 11 11
13 13 13 13 13 13 13 13 13 13 13 13 13 13 12 12 12 12 12 11 11 11 11 11 10 10 10 11 11 11 11 11 11 11 11 11 11 11 11 11 11 11 11
13 13 13 13 13 13 13 13 13 13 13 13 13 13 12 12 12 11 11 11 11 10 10 10 10 10 10 10 11 11 11 11 11 11 11 11 11 11 11 10 10 10 10
12 12 12 13 13 13 13 13 13 13 13 13 13 13 12 12 11 11 11 11 10 10 10 10 10 10 10 10 10 10 10 10 10 10 10 10 10 10 10 10 10 10 10
12 12 12 12 12 12 13 13 13 13 13 12 12 12 12 11 11 11 10 10 10 10 10 10 10 10 10 10 10 10 10 10 10 9 9 9 9 9 9 9 9 9 9
12 12 12 12 12 12 12 13 12 12 12 12 12 12 11 11 10 10 10 10 10 9 9 9 9 9 9 9 9 9 8 9 9 9 9 9 9 9 9 9 9 9 9
12 12 12 12 12 12 12 12 12 12 11 11 11 11 11 10 10 10 9 9 9 9 8 8 8 8 8 8 8 8 8 8 8 8 8 8 8 8 9 9 9 9 9
11 11 12 12 12 12 11 11 11 11 11 11 10 10 10 10 9 9 9 8 8 8 8 7 7 7 7 7 7 7 7 7 7 7 7 8 8 8 8 8 8 8 8
11 11 11 11 11 11 11 11 11 10 10 10 10 9 9 9 8 8 8 8 7 7 7 7 7 6 7 7 6 6 6 6 6 7 7 7 7 7 7 8 8 8 8
10 11 11 11 11 10 10 10 10 9 9 9 9 8 8 8 7 7 7 7 6 6 6 6 6 6 6 6 6 6 6 6 6 6 6 7 7 7 7 7 7 8 8
10 10 10 10 10 10 9 9 9 8 8 8 7 7 7 6 6 6 6 6 6 6 5 5 6 5 5 6 5 5 5 6 6 6 6 6 7 7 7 7 7 7 7
9 9 9 9 9 8 8 8 7 7 7 6 6 6 6 5 5 5 5 5 5 5 5 5 5 5 5 5 5 5 5 6 6 6 6 6 6 6 7 7 7 7 7
Wind_Speed
11 10 9 9 8 8 6 6 5 5 6 7 7 7 6 6 6 5 5 4 5 5 4 4 4 4 3 3 3 3 3 3 4 5 4 4 3 4 4 7 10 12 13
11 10 9 9 9 9 8 7 7 7 7 7 6 6 7 7 7 7 7 6 5 5 5 5 5 5 5 4 4 5 4 4 4 6 5 5 6 5 6 6 8 12 12
13 12 10 10 9 9 9 8 8 8 8 7 7 7 7 7 7 7 7 6 5 5 5 6 6 6 6 5 5 5 5 6 4 5 6 5 5 6 6 6 7 6 12
13 12 11 11 10 9 8 8 8 9 9 8 8 8 8 7 7 7 7 7 6 6 6 6 6 6 7 6 6 6 6 6 6 6 6 6 6 6 4 5 6 5 6
12 12 12 10 9 9 9 8 8 9 10 8 8 8 8 8 8 8 7 8 7 7 7 7 8 8 8 7 8 6 6 5 6 6 6 6 6 4 4 4 5 5 6
11 11 11 11 10 10 9 9 9 8 8 9 9 9 9 10 9 11 8 6 6 7 7 8 9 10 12 14 14 13 11 9 8 7 7 7 7 6 5 5 5 6 6
10 10 10 11 10 10 11 10 10 9 9 8 9 9 9 8 9 10 11 7 7 7 8 8 10 11 9 9 13 16 16 18 16 11 11 11 10 8 7 7 7 8 8
9 8 8 9 9 9 9 9 9 8 8 8 8 9 8 10 12 12 12 9 8 9 9 9 9 10 11 9 9 9 10 12 14 14 13 14 14 11 10 10 9 9 9
7 7 7 7 7 8 8 7 7 7 7 8 8 9 9 10 12 13 12 8 9 10 11 11 11 11 13 14 10 10 10 10 13 17 18 18 20 19 13 8 8 9 11
5 5 5 5 6 7 7 6 5 5 6 7 7 7 8 8 11 13 13 8 9 9 9 10 13 13 13 13 10 10 12 11 11 12 11 13 14 15 18 14 12 12 12
3 3 3 3 3 3 3 3 3 4 5 6 7 7 7 9 9 13 14 9 9 8 8 7 7 8 10 12 11 11 14 12 10 10 10 10 10 10 12 12 13 13 13
5 4 3 3 2 2 2 2 2 3 4 5 6 7 6 6 7 10 14 14 11 8 8 8 7 7 7 10 11 14 18 14 11 10 11 11 10 10 9 11 12 13 14
5 4 3 3 3 2 1 3 3 3 5 6 5 5 5 3 3 7 10 12 12 9 9 12 14 15 14 11 15 18 15 11 11 12 13 12 11 11 10 8 9 11 12
4 2 1 2 2 2 1 2 3 2 3 3 3 3 3 2 1 1 0 3 7 8 9 11 13 16 16 16 15 14 11 12 13 13 12 11 10 9 9 9 9 8 9
3 2 1 1 0 1 2 2 2 1 2 3 3 3 3 3 1 1 2 3 4 4 5 7 9 10 10 10 10 10 10 10 12 13 13 12 11 10 10 9 9 9 9
3 3 3 2 1 1 1 1 4 5 6 8 7 6 4 5 6 6 8 9 9 6 4 8 10 11 12 12 11 9 9 9 10 10 10 10 10 10 10 9 8 9 10
4 3 3 3 3 3 2 2 3 4 8 10 11 11 10 10 9 10 12 10 11 6 6 10 11 11 11 10 10 10 9 9 8 8 9 9 10 10 9 9 9 9 9
4 3 3 3 3 4 4 4 4 4 3 4 8 13 14 14 14 15 12 7 8 8 8 9 9 9 9 9 10 9 8 8 8 8 9 9 9 9 9 9 10 10 10
5 4 4 4 5 5 5 5 5 4 4 5 4 4 10 12 13 15 9 6 9 9 9 8 8 9 9 9 9 9 9 9 9 8 9 9 9 9 9 9 10 13 11
4 6 5 5 6 6 5 5 5 5 5 5 6 5 2 3 5 7 6 6 7 8 8 8 8 9 9 9 9 10 10 10 10 9 9 9 9 9 10 11 11 10 9
6 6 6 6 6 5 5 6 6 6 7 6 6 4 4 6 8 8 7 6 6 7 8 8 8 10 10 9 9 10 11 10 9 9 9 9 9 9 9 9 10 10 9
7 7 6 6 5 5 6 6 7 7 8 8 6 6 6 6 8 8 8 7 8 7 8 8 10 10 9 9 9 9 10 11 10 10 9 9 9 9 10 9 9 8 8
8 8 7 6 6 6 6 6 6 7 8 7 8 7 6 6 7 7 8 8 8 8 8 8 9 11 10 8 8 9 10 9 9 9 9 9 9 9 8 9 10 10 9
9 9 8 8 7 7 7 7 7 8 8 8 8 8 8 7 8 9 9 9 9 9 9 9 10 13 14 11 9 8 7 7 9 9 11 11 11 10 9 8 9 10 9
10 10 9 9 8 8 8 8 8 9 9 9 9 9 9 9 9 9 9 8 10 11 12 11 9 10 12 13 12 10 8 9 9 9 9 9 11 11 10 10 9 9 9
10 10 9 8 8 8 8 8 8 9 9 9 9 9 9 10 9 9 9 9 10 10 11 10 12 13 13 11 12 11 9 9 9 9 8 9 10 10 10 9 10 9 10
Wind_Direction
179 184 176 177 180 180 185 176 165 156 152 164 173 176 179 181 184 194 232 202 201 220 233 221 217 236 274 300 294 274 257 255 268 283 290 294 267 245 252 253 263 261 252
181 182 180 179 178 182 186 180 171 172 174 179 183 187 196 195 189 196 223 222 211 217 228 233 233 234 220 244 270 279 273 262 254 271 279 280 272 252 236 232 255 266 265
181 183 181 182 183 187 186 180 178 178 185 187 190 198 209 206 196 203 215 230 230 230 233 234 234 238 238 236 245 260 271 276 264 263 270 264 262 259 251 246 251 255 266
179 181 182 185 187 189 187 181 183 185 191 195 196 203 210 215 209 209 212 218 228 240 244 245 244 239 238 235 246 247 255 265 270 269 267 265 259 254 245 244 260 251 257
175 180 182 182 184 187 188 187 188 192 197 197 203 207 212 215 218 212 215 219 218 231 240 243 247 244 240 241 252 251 259 260 265 267 271 273 269 276 269 263 270 272 262
174 181 178 181 186 191 191 191 192 197 202 196 205 210 213 222 209 203 209 235 232 235 243 245 249 240 237 233 238 242 244 252 259 265 272 273 277 280 279 278 275 276 276
177 181 177 179 187 193 196 195 198 200 205 206 209 215 220 217 209 202 206 222 242 247 249 250 256 257 245 234 232 235 241 244 241 246 258 263 270 275 283 284 277 275 273
175 177 176 181 189 194 199 199 200 200 206 211 215 219 226 223 210 207 208 220 239 249 251 250 250 257 262 257 256 249 238 239 236 236 242 249 253 255 256 261 265 270 266
176 175 177 182 185 190 200 205 201 204 210 216 221 224 229 230 214 210 203 224 239 246 250 252 250 250 250 249 251 257 260 258 253 246 232 236 241 247 249 259 263 266 271
168 171 177 184 187 188 192 196 197 204 217 223 226 227 232 236 220 212 206 229 245 252 252 251 250 249 252 245 243 249 255 257 262 269 261 251 248 249 243 238 244 252 261
100 117 129 145 163 167 168 178 195 216 232 237 242 238 235 238 224 212 206 221 243 257 263 263 262 258 251 251 248 251 255 260 263 263 265 261 252 247 241 232 228 233 245
74 79 85 103 142 160 141 169 197 225 247 251 252 254 246 238 230 217 210 219 238 255 266 275 282 304 294 277 263 256 258 262 264 264 263 262 260 255 247 239 231 228 229
72 69 67 76 77 87 149 214 218 221 242 255 254 258 260 248 224 217 217 231 244 253 270 284 296 298 294 281 262 257 257 257 255 256 258 258 258 257 254 250 244 237 232
71 78 105 120 150 158 191 227 230 232 246 273 284 290 297 301 358 55 172 251 254 257 269 282 285 280 274 266 268 264 250 246 247 252 254 257 257 258 258 253 251 246 246
40 31 6 27 177 217 219 229 236 242 226 235 267 290 301 297 300 331 300 291 289 290 300 285 279 276 271 267 262 258 255 250 246 247 253 257 259 260 260 256 253 251 250
19 10 350 337 326 277 262 262 227 226 213 213 217 228 247 234 237 254 263 264 266 269 278 277 277 276 275 274 272 270 263 261 261 258 255 256 258 260 262 262 258 255 256
4 353 343 335 324 311 300 285 277 253 235 239 240 240 243 254 261 264 266 274 278 257 254 267 270 272 274 278 280 282 281 276 270 267 263 263 262 262 262 263 263 261 258
341 338 317 314 315 314 304 290 281 283 278 263 242 236 239 245 252 258 265 286 280 256 257 269 275 278 281 283 283 282 283 286 283 277 272 271 269 269 268 264 263 263 262
334 329 332 325 311 304 300 297 299 306 310 307 303 254 231 242 252 260 259 254 272 283 288 290 292 295 297 298 298 296 294 291 288 286 281 278 274 272 270 268 266 263 260
304 294 291 296 300 303 306 314 320 322 317 311 306 309 304 279 280 277 263 261 274 285 293 298 301 300 300 299 300 301 298 294 292 288 284 280 278 274 271 267 264 262 257
317 311 287 285 298 310 320 322 319 312 309 308 308 317 323 305 297 300 306 299 298 305 309 308 306 303 301 301 302 303 303 300 296 291 288 287 284 280 274 270 268 265 264
315 313 310 310 314 321 321 312 306 305 304 305 307 309 300 299 300 303 304 306 308 308 307 305 302 300 298 299 301 301 300 297 294 290 288 289 288 285 281 275 270 269 265
304 307 310 314 316 314 304 304 308 310 311 314 318 319 315 307 305 307 310 312 312 309 307 303 301 299 299 300 299 297 295 295 298 299 298 294 292 288 284 281 275 272 266
308 310 314 316 314 315 315 318 321 322 322 323 323 321 319 319 316 314 315 314 312 309 307 305 302 301 303 307 305 301 301 306 309 304 302 298 295 288 283 280 278 276 275
313 319 320 321 323 324 325 325 326 327 326 325 326 325 323 322 317 313 312 313 311 306 304 304 301 303 306 311 313 311 313 307 302 303 298 291 288 287 284 282 279 279 276
318 321 325 327 327 328 328 327 325 325 325 324 323 322 318 315 313 315 316 314 310 307 306 306 305 308 309 311 312 314 309 301 297 295 292 287 284 281 284 284 286 284 284
Height
1513 1516 1520 1522 1525 1527 1529 1531 1534 1536 1538 1539 1540 1542 1543 1544 1545 1546 1547 1549 1549 1550 1550 1551 1551 1551 1552 1552 1552 1553 1553 1553 1552 1551 1551 1551 1550 1549 1548 1547 1545 1544 1543
1511 1514 1517 1519 1522 1524 1526 1529 1531 1533 1534 1536 1538 1540 1541 1542 1543 1544 1545 1546 1547 1548 1548 1548 1548 1549 1549 1549 1549 1549 1549 1549 1548 1547 1547 1546 1546 1545 1544 1542 1541 1540 1539
1508 1511 1514 1516 1519 1521 1524 1526 1528 1530 1531 1533 1535 1537 1538 1540 1541 1541 1542 1543 1544 1545 1545 1545 1545 1546 1545 1545 1545 1545 1545 1545 1545 1543 1542 1542 1541 1540 1539 1538 1537 1535 1534
1504 1507 1510 1513 1515 1518 1521 1523 1525 1526 1528 1530 1532 1534 1535 1536 1537 1538 1539 1540 1540 1541 1542 1542 1542 1542 1542 1542 1541 1541 1541 1540 1540 1539 1538 1537 1536 1536 1535 1533 1532 1531 1529
1501 1504 1506 1509 1512 1515 1517 1519 1521 1523 1525 1527 1528 1530 1531 1533 1534 1535 1535 1536 1536 1537 1537 1537 1538 1538 1537 1537 1537 1537 1536 1535 1535 1534 1533 1532 1531 1531 1530 1528 1527 1525 1524
1497 1501 1503 1506 1508 1511 1513 1516 1518 1520 1522 1524 1525 1526 1527 1529 1530 1531 1532 1532 1532 1532 1533 1533 1533 1533 1532 1532 1532 1531 1531 1530 1529 1528 1527 1526 1525 1525 1524 1523 1521 1520 1517
1494 1497 1499 1502 1505 1507 1510 1512 1514 1516 1518 1519 1521 1522 1523 1524 1526 1527 1527 1528 1528 1527 1527 1527 1527 1527 1527 1526 1525 1525 1525 1524 1523 1523 1521 1519 1519 1519 1518 1516 1515 1513 1511
1490 1493 1495 1498 1501 1503 1506 1507 1509 1511 1513 1514 1516 1517 1518 1519 1520 1521 1522 1522 1522 1522 1521 1521 1521 1521 1521 1521 1520 1519 1518 1517 1516 1515 1514 1512 1512 1511 1511 1510 1508 1506 1503
1486 1488 1491 1494 1496 1499 1500 1502 1505 1507 1509 1510 1511 1512 1513 1514 1515 1515 1516 1516 1516 1516 1516 1515 1515 1515 1514 1514 1513 1512 1511 1510 1510 1509 1507 1505 1504 1504 1504 1503 1500 1499 1495
1482 1485 1488 1491 1493 1494 1496 1498 1500 1502 1504 1505 1506 1507 1507 1508 1509 1510 1510 1510 1510 1509 1510 1509 1509 1509 1508 1507 1506 1505 1503 1502 1502 1501 1500 1498 1497 1496 1495 1494 1492 1491 1488
1481 1484 1485 1487 1489 1491 1493 1495 1497 1499 1500 1501 1501 1501 1502 1502 1502 1503 1504 1503 1504 1504 1503 1503 1503 1502 1501 1501 1500 1498 1496 1496 1494 1492 1491 1489 1488 1487 1486 1484 1483 1482 1480
1480 1482 1483 1484 1486 1488 1490 1492 1493 1495 1496 1497 1497 1497 1497 1497 1497 1497 1498 1498 1498 1498 1497 1497 1496 1495 1494 1493 1492 1490 1489 1488 1486 1483 1481 1480 1479 1478 1477 1476 1475 1473 1471
1479 1481 1482 1482 1484 1485 1487 1489 1490 1490 1492 1493 1493 1492 1493 1493 1492 1492 1492 1493 1492 1492 1491 1490 1489 1488 1486 1484 1483 1482 1480 1478 1476 1474 1471 1470 1470 1469 1468 1467 1466 1465 1463
1480 1481 1481 1482 1482 1483 1485 1486 1486 1486 1488 1489 1489 1489 1489 1488 1488 1488 1487 1487 1487 1486 1484 1482 1481 1479 1478 1475 1473 1472 1470 1468 1466 1464 1462 1461 1461 1460 1459 1458 1457 1456 1454
1480 1481 1481 1481 1482 1482 1482 1483 1484 1483 1484 1485 1485 1485 1485 1485 1484 1484 1483 1482 1481 1480 1477 1475 1473 1471 1469 1467 1465 1463 1462 1460 1458 1455 1454 1452 1452 1451 1450 1449 1448 1447 1445
1481 1481 1481 1481 1481 1481 1481 1481 1481 1481 1481 1481 1481 1481 1480 1481 1480 1479 1478 1476 1475 1473 1471 1468 1466 1463 1461 1459 1458 1456 1454 1452 1450 1448 1446 1444 1443 1442 1440 1440 1439 1438 1436
1481 1481 1481 1481 1481 1480 1479 1479 1479 1479 1478 1478 1477 1476 1476 1476 1475 1474 1473 1471 1469 1467 1464 1461 1459 1457 1455 1453 1451 1448 1446 1444 1442 1439 1437 1436 1434 1433 1432 1430 1429 1429 1427
1482 1482 1481 1480 1480 1479 1478 1478 1477 1476 1476 1475 1474 1473 1472 1471 1470 1469 1468 1465 1463 1461 1459 1456 1454 1451 1449 1446 1443 1441 1438 1436 1434 1432 1430 1428 1426 1425 1423 1421 1420 1420 1419
1482 1481 1480 1479 1479 1478 1477 1476 1475 1474 1473 1472 1471 1470 1468 1467 1465 1464 1462 1460 1458 1456 1454 1451 1448 1445 1443 1440 1437 1434 1431 1428 1426 1424 1422 1420 1418 1417 1415 1413 1412 1411 1410
1481 1480 1479 1478 1478 1476 1475 1474 1473 1472 1471 1469 1468 1466 1464 1463 1461 1460 1458 1455 1453 1450 1448 1445 1442 1439 1436 1433 1430 1427 1424 1421 1418 1416 1413 1411 1410 1408 1406 1405 1404 1403 1401
1481 1479 1478 1477 1476 1474 1473 1472 1470 1469 1468 1466 1464 1462 1460 1459 1457 1455 1453 1450 1448 1445 1442 1439 1435 1433 1430 1427 1424 1420 1417 1414 1411 1409 1406 1404 1402 1400 1398 1397 1396 1395 1394
1479 1478 1476 1475 1473 1472 1470 1469 1467 1466 1464 1462 1460 1458 1456 1454 1452 1450 1447 1445 1442 1439 1436 1433 1429 1426 1424 1420 1417 1413 1410 1406 1404 1401 1399 1396 1394 1392 1391 1389 1388 1387 1387
1477 1476 1474 1472 1470 1468 1467 1465 1463 1462 1460 1458 1456 1454 1451 1449 1447 1444 1441 1438 1436 1432 1429 1426 1423 1419 1416 1413 1410 1407 1403 1399 1397 1394 1392 1389 1387 1386 1384 1383 1382 1381 1380
1475 1473 1471 1469 1467 1465 1464 1462 1460 1458 1456 1454 1451 1449 1446 1444 1441 1438 1435 1432 1429 1426 1422 1419 1415 1412 1409 1406 1402 1398 1395 1392 1390 1387 1385 1383 1381 1379 1378 1376 1375 1374 1373
1472 1470 1468 1466 1464 1462 1460 1458 1456 1454 1452 1449 1446 1444 1441 1438 1436 1433 1429 1426 1422 1419 1415 1412 1409 1405 1402 1398 1395 1391 1388 1386 1383 1381 1378 1376 1375 1373 1372 1371 1369 1368 1367
1469 1467 1465 1463 1460 1458 1456 1454 1452 1449 1447 1445 1442 1439 1436 1433 1430 1427 1424 1420 1416 1413 1409 1406 1402 1399 1395 1391 1388 1385 1382 1379 1376 1374 1372 1370 1368 1367 1366 1365 1364 1363 1362